| time (UTC) | temp F | wind direction | speed knots | gust knots | rain 1hr in | rain 24hr in | rain mn in | humidity % | barometer mb |
| 20260503194553 | 62 | 0 | 0.9 | 7.0 | 0.00 | 0.00 | 0.00 | 71 | 1013.5 |
| 20260503194038 | 62 | 0 | 0.0 | 8.7 | 0.00 | 0.00 | 0.00 | 72 | 1013.4 |
| 20260503193542 | 61 | 0 | 0.0 | 8.7 | 0.00 | 0.00 | 0.00 | 73 | 1013.6 |
| 20260503193054 | 61 | 0 | 0.0 | 7.8 | 0.00 | 0.00 | 0.00 | 73 | 1013.5 |
| 20260503192537 | 61 | 215 | 0.0 | 8.7 | 0.00 | 0.00 | 0.00 | 74 | 1013.6 |
| 20260503192037 | 60 | 182 | 1.7 | 8.7 | 0.00 | 0.00 | 0.00 | 73 | 1013.6 |
| 20260503191556 | 60 | 0 | 1.7 | 8.7 | 0.00 | 0.00 | 0.00 | 73 | 1013.7 |
| 20260503191039 | 60 | 0 | 1.7 | 8.7 | 0.00 | 0.00 | 0.00 | 72 | 1013.6 |
| 20260503190542 | 60 | 167 | 1.7 | 8.7 | 0.00 | 0.00 | 0.00 | 72 | 1013.7 |
| 20260503185541 | 60 | 153 | 0.9 | 7.8 | 0.00 | 0.00 | 0.00 | 74 | 1013.7 |
| 20260503185038 | 60 | 0 | 0.9 | 7.0 | 0.00 | 0.00 | 0.00 | 75 | 1013.7 |
| 20260503184549 | 60 | 0 | 0.0 | 6.1 | 0.00 | 0.00 | 0.00 | 76 | 1013.7 |
| 20260503184038 | 60 | 0 | 0.0 | 10.4 | 0.00 | 0.00 | 0.00 | 75 | 1013.7 |
| 20260503183540 | 60 | 0 | 0.0 | 10.4 | 0.00 | 0.00 | 0.00 | 76 | 1013.8 |
| 20260503183049 | 60 | 103 | 1.7 | 10.4 | 0.00 | 0.00 | 0.00 | 76 | 1013.8 |
| 20260503182540 | 60 | 0 | 1.7 | 9.6 | 0.00 | 0.00 | 0.00 | 75 | 1013.7 |
| 20260503182038 | 60 | 0 | 0.0 | 7.0 | 0.00 | 0.00 | 0.00 | 77 | 1013.6 |
| 20260503181559 | 59 | 0 | 0.0 | 7.0 | 0.00 | 0.00 | 0.00 | 77 | 1013.6 |
| 20260503181042 | 59 | 0 | 0.9 | 7.0 | 0.00 | 0.00 | 0.00 | 77 | 1013.6 |
| 20260503180540 | 59 | 0 | 0.9 | 7.8 | 0.00 | 0.00 | 0.00 | 77 | 1013.6 |
| 20260503180055 | 59 | 0 | 0.9 | 7.8 | 0.00 | 0.00 | 0.00 | 77 | 1013.5 |
| 20260503175539 | 60 | 187 | 0.9 | 7.0 | 0.00 | 0.00 | 0.00 | 78 | 1013.5 |
| 20260503175039 | 60 | 213 | 0.0 | 7.0 | 0.00 | 0.00 | 0.00 | 79 | 1013.4 |
| 20260503174550 | 59 | 0 | 0.0 | 7.0 | 0.00 | 0.00 | 0.00 | 80 | 1013.3 |
| 20260503174039 | 59 | 213 | 0.0 | 6.1 | 0.00 | 0.00 | 0.00 | 81 | 1013.2 |
| 20260503173539 | 58 | 0 | 0.0 | 5.2 | 0.00 | 0.00 | 0.00 | 81 | 1013.4 |
| 20260503173051 | 58 | 0 | 0.0 | 5.2 | 0.00 | 0.00 | 0.00 | 81 | 1013.3 |
| 20260503172539 | 58 | 0 | 0.0 | 8.7 | 0.00 | 0.00 | 0.00 | 81 | 1013.4 |
| 20260503172039 | 58 | 0 | 0.0 | 8.7 | 0.00 | 0.00 | 0.00 | 82 | 1013.6 |
| 20260503171549 | 57 | 0 | 0.9 | 8.7 | 0.00 | 0.00 | 0.00 | 82 | 1013.4 |
| 20260503171041 | 57 | 185 | 0.0 | 5.2 | 0.00 | 0.00 | 0.00 | 82 | 1013.4 |
| 20260503170539 | 57 | 0 | 0.0 | 5.2 | 0.00 | 0.00 | 0.00 | 83 | 1013.4 |
| 20260503150542 | 54 | 0 | 0.0 | 0.0 | 0.00 | 0.00 | 0.00 | 85 | 1012.7 |
| 20260503131042 | 53 | 0 | 0.0 | 0.0 | 0.00 | 0.00 | 0.00 | 85 | 1011.4 |
| 20260503130541 | 53 | 0 | 0.0 | 0.0 | 0.00 | 0.00 | 0.00 | 85 | 1011.2 |
| 20260503110541 | 53 | 0 | 0.0 | 0.0 | 0.00 | 0.00 | 0.00 | 86 | 1011.4 |
| 20260503100105 | 53 | 0 | 0.0 | 0.0 | 0.00 | 0.00 | 0.00 | 86 | 1011.3 |
| 20260503081600 | 53 | 0 | 0.0 | 0.0 | 0.00 | 0.00 | 0.00 | 86 | 1012.1 |
| 20260503081040 | 53 | 0 | 0.0 | 0.0 | 0.00 | 0.00 | 0.00 | 86 | 1012.3 |
| 20260503080540 | 53 | 0 | 0.0 | 0.0 | 0.00 | 0.00 | 0.00 | 86 | 1012.3 |
| 20260503072540 | 53 | 0 | 0.0 | 0.0 | 0.00 | 0.00 | 0.00 | 86 | 1012.1 |
| 20260503072041 | 53 | 0 | 0.0 | 0.0 | 0.00 | 0.00 | 0.00 | 86 | 1012.1 |
| 20260503071551 | 54 | 0 | 0.0 | 0.0 | 0.00 | 0.00 | 0.00 | 86 | 1012.2 |
| 20260503071041 | 53 | 0 | 0.0 | 0.0 | 0.00 | 0.00 | 0.00 | 86 | 1012.3 |
| 20260503070541 | 54 | 0 | 0.0 | 0.0 | 0.00 | 0.00 | 0.00 | 86 | 1012.3 |
| 20260503060114 | 54 | 0 | 0.0 | 0.0 | 0.00 | 0.00 | 0.00 | 85 | 1012.5 |
| 20260503055040 | 54 | 0 | 0.0 | 0.0 | 0.00 | 0.00 | 0.00 | 85 | 1012.7 |
| 20260503054602 | 54 | 0 | 0.0 | 0.0 | 0.00 | 0.00 | 0.00 | 85 | 1012.8 |
| 20260503054043 | 54 | 0 | 0.0 | 0.0 | 0.00 | 0.00 | 0.00 | 85 | 1012.7 |
| 20260503053540 | 54 | 0 | 0.0 | 0.0 | 0.00 | 0.00 | 0.00 | 85 | 1012.6 |
| 20260503053048 | 54 | 0 | 0.0 | 0.0 | 0.00 | 0.00 | 0.00 | 85 | 1012.6 |
| 20260503052546 | 54 | 0 | 0.0 | 0.0 | 0.00 | 0.00 | 0.00 | 85 | 1012.7 |
| 20260503052045 | 54 | 0 | 0.0 | 0.0 | 0.00 | 0.00 | 0.00 | 85 | 1012.6 |
| 20260503051549 | 54 | 0 | 0.0 | 0.0 | 0.00 | 0.00 | 0.00 | 85 | 1012.7 |
| 20260503051042 | 54 | 0 | 0.0 | 0.0 | 0.00 | 0.00 | 0.00 | 85 | 1012.9 |
| 20260503050540 | 54 | 0 | 0.0 | 0.0 | 0.00 | 0.00 | 0.00 | 85 | 1012.9 |
| 20260503050053 | 54 | 0 | 0.0 | 0.0 | 0.00 | 0.00 | 0.00 | 85 | 1012.8 |
| 20260503045540 | 54 | 0 | 0.0 | 0.0 | 0.00 | 0.00 | 0.00 | 85 | 1012.7 |
| 20260503045040 | 54 | 0 | 0.0 | 0.0 | 0.00 | 0.00 | 0.00 | 85 | 1012.8 |
| 20260503044552 | 54 | 0 | 0.0 | 0.0 | 0.00 | 0.00 | 0.00 | 85 | 1012.7 |
| 20260503044040 | 54 | 0 | 0.0 | 0.0 | 0.00 | 0.00 | 0.00 | 85 | 1012.8 |
| 20260503043544 | 54 | 0 | 0.0 | 0.0 | 0.00 | 0.00 | 0.00 | 85 | 1012.8 |
| 20260503043050 | 54 | 0 | 0.0 | 0.0 | 0.00 | 0.00 | 0.00 | 85 | 1012.7 |
| 20260503042543 | 54 | 0 | 0.0 | 0.0 | 0.00 | 0.00 | 0.00 | 85 | 1012.5 |
| 20260503042042 | 54 | 0 | 0.0 | 0.0 | 0.00 | 0.00 | 0.00 | 84 | 1012.5 |
| 20260503041550 | 54 | 0 | 0.0 | 0.0 | 0.00 | 0.00 | 0.00 | 84 | 1012.5 |
| 20260503041040 | 54 | 0 | 0.0 | 0.0 | 0.00 | 0.00 | 0.00 | 84 | 1012.5 |
| 20260503040541 | 54 | 0 | 0.0 | 0.0 | 0.00 | 0.00 | 0.00 | 84 | 1012.5 |
| 20260503040050 | 54 | 0 | 0.0 | 0.0 | 0.00 | 0.00 | 0.00 | 84 | 1012.5 |
| 20260503035541 | 54 | 0 | 0.0 | 0.0 | 0.00 | 0.00 | 0.00 | 84 | 1012.5 |
| 20260503035041 | 54 | 0 | 0.0 | 0.0 | 0.00 | 0.00 | 0.00 | 84 | 1012.3 |
| 20260503034547 | 54 | 0 | 0.0 | 0.0 | 0.00 | 0.00 | 0.00 | 84 | 1012.2 |
| 20260503034040 | 54 | 0 | 0.0 | 0.0 | 0.00 | 0.00 | 0.00 | 84 | 1012.3 |
| 20260503033541 | 55 | 0 | 0.0 | 0.0 | 0.00 | 0.00 | 0.00 | 84 | 1012.2 |
| 20260503033047 | 55 | 0 | 0.0 | 0.0 | 0.00 | 0.00 | 0.00 | 84 | 1012.2 |
| 20260503032541 | 55 | 0 | 0.0 | 0.0 | 0.00 | 0.00 | 0.00 | 83 | 1012.0 |
| 20260503032040 | 55 | 0 | 0.0 | 0.0 | 0.00 | 0.00 | 0.00 | 83 | 1011.9 |
| 20260503031549 | 55 | 0 | 0.0 | 0.0 | 0.00 | 0.00 | 0.00 | 83 | 1011.8 |
| 20260503031040 | 55 | 0 | 0.0 | 0.0 | 0.00 | 0.00 | 0.00 | 83 | 1011.8 |
| 20260503030542 | 55 | 0 | 0.0 | 0.0 | 0.00 | 0.00 | 0.00 | 83 | 1011.8 |
| 20260503030049 | 55 | 0 | 0.0 | 0.0 | 0.00 | 0.00 | 0.00 | 83 | 1011.7 |
| 20260503025540 | 55 | 0 | 0.0 | 0.0 | 0.00 | 0.00 | 0.00 | 82 | 1011.7 |
| 20260503025042 | 56 | 0 | 0.0 | 0.0 | 0.00 | 0.00 | 0.00 | 82 | 1011.8 |
| 20260503024551 | 56 | 0 | 0.0 | 0.0 | 0.00 | 0.00 | 0.00 | 82 | 1011.8 |
| 20260503024041 | 56 | 0 | 0.0 | 0.0 | 0.00 | 0.00 | 0.00 | 82 | 1011.8 |
| 20260503023541 | 56 | 0 | 0.0 | 0.0 | 0.00 | 0.00 | 0.00 | 82 | 1011.6 |
| 20260503023050 | 56 | 0 | 0.0 | 0.0 | 0.00 | 0.00 | 0.00 | 82 | 1011.7 |
| 20260503022541 | 56 | 0 | 0.0 | 0.0 | 0.00 | 0.00 | 0.00 | 82 | 1011.7 |
| 20260503022042 | 56 | 0 | 0.0 | 0.0 | 0.00 | 0.00 | 0.00 | 82 | 1011.7 |
| 20260503021552 | 56 | 0 | 0.0 | 0.0 | 0.00 | 0.00 | 0.00 | 81 | 1011.6 |
| 20260503021040 | 57 | 0 | 0.0 | 0.0 | 0.00 | 0.00 | 0.00 | 81 | 1011.8 |
| 20260503020540 | 57 | 0 | 0.0 | 0.0 | 0.00 | 0.00 | 0.00 | 81 | 1011.5 |
| 20260503020050 | 57 | 0 | 0.0 | 0.0 | 0.00 | 0.00 | 0.00 | 80 | 1011.6 |
| 20260503015540 | 57 | 0 | 0.0 | 0.0 | 0.00 | 0.00 | 0.00 | 80 | 1011.6 |
| 20260503015039 | 57 | 0 | 0.0 | 0.0 | 0.00 | 0.00 | 0.00 | 79 | 1011.7 |
| 20260503014546 | 58 | 0 | 0.0 | 0.0 | 0.00 | 0.00 | 0.00 | 79 | 1011.7 |
| 20260503014040 | 58 | 0 | 0.0 | 0.0 | 0.00 | 0.00 | 0.00 | 79 | 1011.7 |
| 20260503013541 | 58 | 0 | 0.0 | 0.0 | 0.00 | 0.00 | 0.00 | 79 | 1011.7 |
| 20260503013053 | 58 | 0 | 0.0 | 0.0 | 0.00 | 0.00 | 0.00 | 79 | 1011.8 |
| 20260503012541 | 58 | 0 | 0.0 | 0.0 | 0.00 | 0.00 | 0.00 | 78 | 1011.7 |
| 20260503012110 | 58 | 0 | 0.0 | 0.0 | 0.00 | 0.00 | 0.00 | 78 | 1011.9 |
| 20260503011547 | 58 | 0 | 0.0 | 0.0 | 0.00 | 0.00 | 0.00 | 78 | 1011.9 |
| 20260503011043 | 59 | 0 | 0.0 | 0.0 | 0.00 | 0.00 | 0.00 | 78 | 1011.9 |
| 20260503010540 | 59 | 0 | 0.0 | 0.0 | 0.00 | 0.00 | 0.00 | 77 | 1011.8 |
| 20260503010052 | 59 | 0 | 0.0 | 0.0 | 0.00 | 0.00 | 0.00 | 77 | 1011.9 |
| 20260503005540 | 59 | 0 | 0.0 | 6.1 | 0.00 | 0.00 | 0.00 | 76 | 1011.9 |
| 20260503005044 | 59 | 0 | 0.0 | 6.1 | 0.00 | 0.00 | 0.00 | 76 | 1011.8 |
| 20260503004549 | 59 | 0 | 0.0 | 0.0 | 0.00 | 0.00 | 0.00 | 76 | 1012.0 |
| 20260503004040 | 59 | 0 | 0.0 | 6.1 | 0.00 | 0.00 | 0.00 | 76 | 1011.8 |
| 20260503003540 | 59 | 0 | 0.0 | 7.0 | 0.00 | 0.00 | 0.00 | 76 | 1012.0 |
| 20260503003046 | 59 | 0 | 0.0 | 10.4 | 0.00 | 0.00 | 0.00 | 76 | 1011.9 |
| 20260503002540 | 60 | 0 | 0.9 | 10.4 | 0.00 | 0.00 | 0.00 | 75 | 1012.0 |
| 20260503002040 | 60 | 0 | 0.0 | 0.0 | 0.00 | 0.00 | 0.00 | 75 | 1012.1 |
| 20260503001549 | 60 | 0 | 0.0 | 0.0 | 0.00 | 0.00 | 0.00 | 75 | 1012.0 |
| 20260503001040 | 60 | 0 | 0.0 | 0.0 | 0.00 | 0.00 | 0.00 | 75 | 1012.0 |
| 20260503000541 | 60 | 0 | 0.0 | 0.0 | 0.00 | 0.00 | 0.00 | 75 | 1012.0 |
| 20260503000051 | 60 | 0 | 0.0 | 7.8 | 0.00 | 0.00 | 0.00 | 75 | 1012.0 |
| 20260502235540 | 60 | 0 | 0.0 | 7.8 | 0.00 | 0.00 | 0.00 | 75 | 1012.1 |
| 20260502235039 | 60 | 0 | 0.0 | 6.1 | 0.00 | 0.00 | 0.00 | 75 | 1012.1 |
| 20260502234556 | 60 | 0 | 0.0 | 0.0 | 0.00 | 0.00 | 0.00 | 75 | 1012.2 |
| 20260502234041 | 60 | 0 | 0.0 | 0.0 | 0.00 | 0.00 | 0.00 | 76 | 1012.1 |
| 20260502233540 | 60 | 0 | 0.0 | 8.7 | 0.00 | 0.00 | 0.00 | 76 | 1012.2 |
| 20260502233048 | 60 | 0 | 0.0 | 8.7 | 0.00 | 0.00 | 0.00 | 77 | 1012.1 |
| 20260502232543 | 60 | 0 | 0.0 | 0.0 | 0.00 | 0.00 | 0.00 | 78 | 1012.2 |
| 20260502232040 | 60 | 0 | 0.0 | 0.0 | 0.00 | 0.00 | 0.00 | 78 | 1012.4 |
| 20260502231557 | 59 | 0 | 0.0 | 0.0 | 0.00 | 0.00 | 0.00 | 78 | 1012.4 |
| 20260502231040 | 59 | 0 | 0.0 | 8.7 | 0.00 | 0.00 | 0.00 | 78 | 1012.4 |
| 20260502230539 | 59 | 0 | 0.0 | 9.6 | 0.00 | 0.00 | 0.00 | 79 | 1012.6 |
| 20260502230053 | 59 | 0 | 0.0 | 9.6 | 0.00 | 0.00 | 0.00 | 79 | 1012.7 |
| 20260502225541 | 59 | 162 | 0.0 | 9.6 | 0.00 | 0.00 | 0.00 | 80 | 1012.7 |
| 20260502225040 | 58 | 0 | 0.9 | 13.0 | 0.00 | 0.00 | 0.00 | 80 | 1012.8 |
| 20260502224549 | 58 | 0 | 1.7 | 13.0 | 0.00 | 0.00 | 0.00 | 79 | 1012.9 |
| 20260502224040 | 58 | 166 | 2.6 | 10.4 | 0.00 | 0.00 | 0.00 | 79 | 1012.9 |
| 20260502223541 | 59 | 214 | 0.0 | 7.8 | 0.00 | 0.00 | 0.00 | 79 | 1013.1 |
| 20260502223054 | 59 | 0 | 0.0 | 8.7 | 0.00 | 0.00 | 0.00 | 79 | 1013.2 |
| 20260502222539 | 59 | 0 | 0.9 | 8.7 | 0.00 | 0.00 | 0.00 | 79 | 1013.3 |
| 20260502222039 | 59 | 184 | 0.0 | 9.6 | 0.00 | 0.00 | 0.00 | 80 | 1013.3 |
| 20260502221548 | 58 | 0 | 0.0 | 9.6 | 0.00 | 0.00 | 0.00 | 79 | 1013.3 |
| 20260502221043 | 58 | 111 | 3.5 | 10.4 | 0.00 | 0.00 | 0.00 | 79 | 1013.5 |
| 20260502220541 | 58 | 125 | 0.9 | 12.2 | 0.00 | 0.00 | 0.00 | 79 | 1013.3 |
| 20260502220051 | 58 | 0 | 5.2 | 14.8 | 0.00 | 0.00 | 0.00 | 79 | 1013.4 |
| 20260502215539 | 58 | 130 | 0.0 | 14.8 | 0.00 | 0.00 | 0.00 | 79 | 1013.4 |
| 20260502215039 | 58 | 194 | 4.3 | 13.9 | 0.00 | 0.00 | 0.00 | 78 | 1013.5 |
| 20260502214552 | 59 | 170 | 4.3 | 10.4 | 0.00 | 0.00 | 0.00 | 77 | 1013.6 |
| 20260502214041 | 59 | 142 | 2.6 | 11.3 | 0.00 | 0.00 | 0.00 | 77 | 1013.6 |
| 20260502213540 | 59 | 198 | 4.3 | 12.2 | 0.00 | 0.00 | 0.00 | 77 | 1013.4 |
| 20260502213105 | 59 | 218 | 2.6 | 12.2 | 0.00 | 0.00 | 0.00 | 77 | 1013.6 |
| 20260502212540 | 59 | 138 | 4.3 | 12.2 | 0.00 | 0.00 | 0.00 | 77 | 1013.6 |
| 20260502212040 | 59 | 184 | 3.5 | 13.9 | 0.00 | 0.00 | 0.00 | 76 | 1013.6 |
| 20260502211555 | 59 | 0 | 5.2 | 14.8 | 0.00 | 0.00 | 0.00 | 77 | 1013.6 |
| 20260502211039 | 59 | 119 | 2.6 | 14.8 | 0.00 | 0.00 | 0.00 | 77 | 1013.5 |
| 20260502210539 | 60 | 177 | 3.5 | 12.2 | 0.00 | 0.00 | 0.00 | 77 | 1013.7 |
| 20260502210046 | 60 | 111 | 3.5 | 14.8 | 0.00 | 0.00 | 0.00 | 77 | 1013.7 |
| 20260502205539 | 59 | 0 | 3.5 | 17.4 | 0.00 | 0.00 | 0.00 | 78 | 1013.8 |
| 20260502205043 | 59 | 115 | 7.0 | 17.4 | 0.00 | 0.00 | 0.00 | 77 | 1013.9 |
| 20260502204556 | 59 | 180 | 3.5 | 13.9 | 0.00 | 0.00 | 0.00 | 78 | 1013.9 |
| 20260502204040 | 59 | 126 | 1.7 | 13.0 | 0.00 | 0.00 | 0.00 | 79 | 1014.1 |
| 20260502203542 | 59 | 0 | 5.2 | 13.0 | 0.00 | 0.00 | 0.00 | 78 | 1014.1 |
| 20260502203052 | 60 | 192 | 1.7 | 12.2 | 0.00 | 0.00 | 0.00 | 79 | 1014.2 |
| 20260502202544 | 59 | 0 | 3.5 | 13.0 | 0.00 | 0.00 | 0.00 | 79 | 1014.2 |
| 20260502202040 | 59 | 0 | 2.6 | 13.0 | 0.00 | 0.00 | 0.00 | 80 | 1014.3 |
| 20260502201551 | 59 | 0 | 0.9 | 7.8 | 0.00 | 0.00 | 0.00 | 81 | 1014.2 |
| 20260502201040 | 59 | 0 | 0.9 | 8.7 | 0.00 | 0.00 | 0.00 | 81 | 1014.3 |
| 20260502200541 | 58 | 0 | 0.0 | 8.7 | 0.00 | 0.00 | 0.00 | 82 | 1014.2 |
| 20260502200048 | 58 | 170 | 0.9 | 11.3 | 0.00 | 0.00 | 0.00 | 82 | 1014.1 |
| 20260502195539 | 58 | 0 | 0.9 | 11.3 | 0.00 | 0.00 | 0.00 | 83 | 1014.3 |
| 20260502195039 | 58 | 0 | 0.0 | 0.0 | 0.00 | 0.00 | 0.00 | 84 | 1014.1 |